Weather in Crotone

Italy     39°04′52″N   17°07′22″E
temp.,
°C
wind,
m/s
gust,
m/s
humid.,
%
clouds,
%
prec.,
mm/h
press.,
hPa
HPBL,
m
12 april, mon
mon1223:00+12ssw598897 0.0 1023437
02:00+12ssw5988100 0.0 1022492
05:00+12ssw598995 0.0 1021473
08:00+13ssw6108468 0.0 1021647
11:00+15ssw81175100 0.0 1022692
14:00+15ssw9127490 0.0 1021697
17:00+14ssw81180100 0.0 1019584
20:00+13ssw6985100 0.1 1020443
13 april, tue
tue1323:00+13ssw579183 1.6 1020368
02:00+13ssw5890100 1.6 1019258
05:00+12ssw6991100 0.8 1018301
08:00+13sw58875 0.9 1018345
11:00+16ssw810711 0.0 1017585
14:00+18sw911600 0.0 10161058
17:00+17wsw910540 0.0 1015747
20:00+12wsw710650 0.0 1015468
14 april, wed
wed1423:00+10w69640 0.0 1016277
02:00+10nw33663 0.0 101770
05:00+8n33805 0.0 101794
08:00+10nne3480100 0.0 1019251
11:00+10n467388 0.8 1020536
14:00+12ese1264100 0.9 1019564
17:00+11wnw1370100 0.3 1019385
20:00+11wnw336985 0.3 102072
15 april, thu
thu1523:00+9nnw366938 0.0 1021206
02:00+8n346912 0.0 1021124
05:00+7n23729 0.0 102074
08:00+9n2265100 0.0 1021134
11:00+12se2256100 0.0 1020807
14:00+13sse4360100 0.0 1020785
17:00+12sse3466100 0.0 1019572
20:00+11s237672 0.0 1018256
16 april, fri
fri1623:00+10w028177 0.0 1019207
02:00+9nne338488 0.0 1018100
05:00+10nne2382100 0.2 1017117
08:00+9nne4792100 1.8 1018328
11:00+11nne3483100 0.7 1017379
14:00+10nne4687100 1.6 1015417
17:00+11ne3484100 0.4 1014434
20:00+11nne468692 0.5 1012461